EN

Hourly Weather Borkow

Today, 18 May, Tuesday

Time Temperature Precipitation Wind Pressure Humidity
00:00 +12°C° 0 mm 1 mps 741 mmHg 85%
01:00 +12°C° 0 mm 1 mps 741 mmHg 86%
02:00 +12°C° 0 mm 2 mps 741 mmHg 87%
03:00 +12°C° 0 mm 2 mps 741 mmHg 89%
04:00 +10°C° 0 mm 2 mps 741 mmHg 91%
05:00 +13°C° 0 mm 2 mps 741 mmHg 87%
06:00 +13°C° 0 mm 3 mps 741 mmHg 83%
07:00 +14°C° 0 mm 3 mps 742 mmHg 79%
08:00 +16°C° 0.1 mm 3 mps 742 mmHg 76%
09:00 +17°C° 0.1 mm 4 mps 742 mmHg 72%
10:00 +17°C° 0.1 mm 5 mps 742 mmHg 68%
11:00 +17°C° 0.5 mm 5 mps 742 mmHg 71%
12:00 +16°C° 0.5 mm 6 mps 742 mmHg 73%
13:00 +16°C° 0.5 mm 6 mps 742 mmHg 76%
14:00 +15°C° 0.2 mm 6 mps 742 mmHg 77%
15:00 +15°C° 0.2 mm 6 mps 743 mmHg 78%
16:00 +15°C° 0.2 mm 6 mps 743 mmHg 79%
17:00 +14°C° 0.1 mm 6 mps 743 mmHg 82%
18:00 +13°C° 0.1 mm 6 mps 743 mmHg 85%
19:00 +11°C° 0.1 mm 6 mps 743 mmHg 89%
20:00 +12°C° 0.3 mm 5 mps 744 mmHg 90%
21:00 +10°C° 0.3 mm 5 mps 744 mmHg 92%
22:00 +10°C° 0.3 mm 5 mps 744 mmHg 94%
23:00 +10°C° 0.6 mm 5 mps 744 mmHg 94%

Tomorrow, 19 May, Wednesday

Time Temperature Precipitation Wind Pressure Humidity
00:00 +9°C° 0.6 mm 5 mps 745 mmHg 95%
01:00 +10°C° 0.6 mm 4 mps 745 mmHg 95%
02:00 +10°C° 0.6 mm 4 mps 745 mmHg 95%
03:00 +8°C° 0.6 mm 4 mps 745 mmHg 96%
04:00 +8°C° 0.6 mm 4 mps 745 mmHg 96%
05:00 +10°C° 0.3 mm 4 mps 745 mmHg 93%
06:00 +10°C° 0.3 mm 4 mps 746 mmHg 89%
07:00 +10°C° 0.3 mm 5 mps 746 mmHg 86%
08:00 +12°C° 0.1 mm 5 mps 746 mmHg 80%
09:00 +13°C° 0.1 mm 5 mps 746 mmHg 74%
10:00 +14°C° 0.1 mm 5 mps 747 mmHg 67%
11:00 +15°C° 0.1 mm 5 mps 746 mmHg 65%
12:00 +15°C° 0.1 mm 5 mps 746 mmHg 62%
13:00 +17°C° 0.1 mm 4 mps 746 mmHg 59%
14:00 +15°C° 0.1 mm 4 mps 746 mmHg 61%
15:00 +15°C° 0.1 mm 4 mps 746 mmHg 63%
16:00 +15°C° 0.1 mm 4 mps 747 mmHg 65%
17:00 +14°C° 0.1 mm 4 mps 747 mmHg 71%
18:00 +13°C° 0.1 mm 3 mps 747 mmHg 76%
19:00 +13°C° 0.1 mm 2 mps 747 mmHg 82%
20:00 +12°C° 0 mm 2 mps 747 mmHg 85%
21:00 +10°C° 0 mm 2 mps 748 mmHg 88%
22:00 +9°C° 0 mm 2 mps 748 mmHg 92%
23:00 +8°C° 0 mm 3 mps 748 mmHg 92%

Day after tomorrow, 20 May, Thursday

Time Temperature Precipitation Wind Pressure Humidity
00:00 +8°C° 0 mm 3 mps 748 mmHg 92%
01:00 +7°C° 0 mm 3 mps 748 mmHg 91%
02:00 +7°C° 0 mm 3 mps 748 mmHg 90%
03:00 +6°C° 0 mm 2 mps 749 mmHg 89%
04:00 +6°C° 0 mm 2 mps 749 mmHg 87%
05:00 +7°C° 0 mm 3 mps 749 mmHg 82%
06:00 +9°C° 0 mm 3 mps 749 mmHg 77%
07:00 +10°C° 0 mm 4 mps 750 mmHg 72%
08:00 +12°C° 0 mm 4 mps 750 mmHg 66%
09:00 +13°C° 0 mm 4 mps 750 mmHg 60%
10:00 +14°C° 0 mm 5 mps 750 mmHg 54%
11:00 +15°C° 0 mm 5 mps 750 mmHg 52%
12:00 +16°C° 0 mm 5 mps 750 mmHg 50%
13:00 +17°C° 0 mm 5 mps 750 mmHg 48%
14:00 +17°C° 0 mm 4 mps 750 mmHg 50%
15:00 +17°C° 0 mm 4 mps 750 mmHg 52%
16:00 +17°C° 0 mm 4 mps 750 mmHg 54%
17:00 +15°C° 0 mm 4 mps 750 mmHg 59%
18:00 +14°C° 0 mm 3 mps 750 mmHg 64%
19:00 +13°C° 0 mm 3 mps 750 mmHg 69%
20:00 +11°C° 0 mm 3 mps 751 mmHg 74%
21:00 +10°C° 0 mm 3 mps 751 mmHg 79%
22:00 +9°C° 0 mm 3 mps 751 mmHg 84%
23:00 +8°C° 0 mm 3 mps 752 mmHg 87%

21 May, Friday

Time Temperature Precipitation Wind Pressure Humidity
00:00 +8°C° 0 mm 3 mps 752 mmHg 90%
01:00 +7°C° 0 mm 2 mps 752 mmHg 93%
02:00 +7°C° 0 mm 2 mps 752 mmHg 92%
03:00 +7°C° 0 mm 1 mps 752 mmHg 92%
04:00 +7°C° 0 mm 1 mps 753 mmHg 91%
05:00 +9°C° 0 mm 1 mps 753 mmHg 85%
06:00 +11°C° 0 mm 1 mps 753 mmHg 79%
07:00 +12°C° 0 mm 1 mps 753 mmHg 72%
08:00 +14°C° 0 mm 2 mps 753 mmHg 66%
09:00 +15°C° 0 mm 2 mps 753 mmHg 59%
10:00 +16°C° 0 mm 2 mps 752 mmHg 53%
11:00 +17°C° 0 mm 2 mps 752 mmHg 50%
12:00 +18°C° 0 mm 3 mps 752 mmHg 48%
13:00 +18°C° 0 mm 3 mps 751 mmHg 45%
14:00 +18°C° 0 mm 3 mps 751 mmHg 45%
15:00 +19°C° 0 mm 3 mps 751 mmHg 45%
16:00 +19°C° 0 mm 3 mps 750 mmHg 46%
17:00 +18°C° 0 mm 3 mps 750 mmHg 52%
18:00 +16°C° 0 mm 3 mps 750 mmHg 58%
19:00 +14°C° 0 mm 3 mps 750 mmHg 65%
20:00 +13°C° 0 mm 3 mps 749 mmHg 66%
21:00 +13°C° 0 mm 4 mps 749 mmHg 68%
22:00 +12°C° 0 mm 4 mps 749 mmHg 69%
23:00 +12°C° 0 mm 4 mps 748 mmHg 70%

22 May, Saturday

Time Temperature Precipitation Wind Pressure Humidity
00:00 +12°C° 0 mm 4 mps 748 mmHg 71%
01:00 +12°C° 0 mm 5 mps 748 mmHg 71%
02:00 +11°C° 0 mm 4 mps 747 mmHg 73%
03:00 +11°C° 0 mm 4 mps 747 mmHg 76%
04:00 +10°C° 0 mm 4 mps 747 mmHg 78%
05:00 +12°C° 0 mm 5 mps 747 mmHg 75%
06:00 +13°C° 0 mm 5 mps 746 mmHg 71%
07:00 +14°C° 0 mm 6 mps 746 mmHg 68%
08:00 +16°C° 0 mm 5 mps 746 mmHg 64%
09:00 +17°C° 0 mm 5 mps 746 mmHg 59%
10:00 +19°C° 0 mm 5 mps 746 mmHg 55%
11:00 +20°C° 0 mm 5 mps 745 mmHg 54%
12:00 +20°C° 0 mm 6 mps 745 mmHg 53%
13:00 +21°C° 0 mm 6 mps 744 mmHg 52%
14:00 +21°C° 0.1 mm 6 mps 744 mmHg 55%
15:00 +20°C° 0.1 mm 6 mps 743 mmHg 58%
16:00 +20°C° 0.1 mm 6 mps 743 mmHg 60%
17:00 +18°C° 0.8 mm 4 mps 743 mmHg 71%
18:00 +16°C° 0.8 mm 3 mps 743 mmHg 82%
19:00 +14°C° 0.8 mm 2 mps 743 mmHg 93%
20:00 +12°C° 0.3 mm 3 mps 744 mmHg 93%
21:00 +12°C° 0.3 mm 3 mps 744 mmHg 93%
22:00 +12°C° 0.3 mm 4 mps 745 mmHg 92%
23:00 +12°C° 0.1 mm 4 mps 745 mmHg 92%

23 May, Sunday

Time Temperature Precipitation Wind Pressure Humidity
00:00 +11°C° 0.1 mm 4 mps 746 mmHg 92%
01:00 +11°C° 0.1 mm 4 mps 746 mmHg 92%
02:00 +10°C° 0 mm 4 mps 746 mmHg 92%
03:00 +10°C° 0 mm 4 mps 746 mmHg 92%
04:00 +9°C° 0 mm 3 mps 746 mmHg 92%
05:00 +10°C° 0 mm 4 mps 747 mmHg 87%
06:00 +11°C° 0 mm 4 mps 747 mmHg 81%
07:00 +12°C° 0 mm 5 mps 747 mmHg 76%
08:00 +13°C° 0 mm 5 mps 747 mmHg 70%
09:00 +14°C° 0 mm 5 mps 748 mmHg 64%
10:00 +16°C° 0 mm 5 mps 748 mmHg 58%
11:00 +16°C° 0.3 mm 5 mps 748 mmHg 60%
12:00 +16°C° 0.3 mm 5 mps 748 mmHg 61%
13:00 +16°C° 0.3 mm 6 mps 748 mmHg 62%
14:00 +15°C° 0.3 mm 5 mps 748 mmHg 66%
15:00 +15°C° 0.3 mm 5 mps 749 mmHg 70%
16:00 +14°C° 0.3 mm 5 mps 749 mmHg 73%
17:00 +13°C° 0.1 mm 4 mps 749 mmHg 76%
18:00 +13°C° 0.1 mm 3 mps 749 mmHg 78%
19:00 +12°C° 0.1 mm 3 mps 749 mmHg 80%
20:00 +11°C° 0 mm 3 mps 750 mmHg 83%
21:00 +10°C° 0 mm 3 mps 750 mmHg 86%
22:00 +9°C° 0 mm 3 mps 751 mmHg 88%
23:00 +8°C° 0 mm 3 mps 751 mmHg 89%
Show more

We Need Your Consent

Meteoprog and our Service Providers may store and access personal data such as cookies, device identifiers or other similar technologies on your device and process such data to personalise content and ads, as well as provide social media features and to analyse the traffic.

  • Store and/or access information on your device

    Cookies, device identifiers or other information can be stored or accessed on your device for the purposes indicated above.

  • Personalised ads and content, ad and content measurement, audience insights, and products development

    Ads and content can be personalised based on a profile. More data can be added to better personalise ads and content. Ad and content performance can be measured. Insights about the audience who saw the ads and content can be derived. Such data can be used to develop or improve user’s experience, systems and software.

By clicking ‘I Agree’ you will allow the use of indicated cookies, device identifiers, web beacons or other similar technologies. Your settings can be changed in the browser on your device.

For certain purposes, legitimate interests may be relied on, rather than consent. You can read more about this in our Privacy and Cookie Policy.